Princeton, MN

2:03 AM CST on December 16, 2019 (GMT -0600)
Princeton Municipal

Weather History for KPNM - May, 2019

Change the Weather History Date:

Sunday, May 12, 2019

  Actual Average Record
Temperature  
Mean Temperature 50 °F -  
Max Temperature 62 °F 64 °F 77 °F (2004)
Min Temperature 39 °F 41 °F 26 °F (2013)
Degree Days  
Heating Degree Days 14    
Moisture  
Dew Point 40 °F    
Average Humidity 65    
Maximum Humidity 93    
Minimum Humidity 37    
Precipitation  
Precipitation 0.00 in - - ()
Sea Level Pressure  
Sea Level Pressure 29.89 in    
Wind  
Wind Speed 4 mph (SSE)    
Max Wind Speed 12 mph    
Max Gust Speed 16 mph    
Visibility 10 miles    
Events      
Averages and records for this station are not official NWS values.
T = Trace of Precipitation, MM = Missing Value Source: NWS Daily Summary

Daily Weather History Graph

Daily Weather History Graph

Search for Another Location

Airport or City:

Astronomy

May. 12, 2019 Rise Set
Actual Time 5:47 AM CDT 8:34 PM CDT
Civil Twilight 5:13 AM CDT 9:09 PM CDT
Nautical Twilight 4:29 AM CDT 9:52 PM CDT
Astronomical Twilight 3:39 AM CDT 10:44 PM CDT
Moon 1:11 PM CDT (5/12) 2:55 AM CDT (5/12)
Length of Visible Light 15h 55m
Length of Day
14h 47m
First Quarter, 58% of the Moon is Illuminated
May 12
First Quarter
May 18
Full
May 26
Last Quarter
Jun 3
New
Jun 10
First Quarter

Hourly Weather History & Observations

Time (CDT) Temp. Windchill Dew Point Humidity Pressure Visibility Wind Dir Wind Speed Gust Speed Precip Events Conditions
12:15 AM 46.4 °F - 42.8 °F 87% 29.89 in 10.0 mi Calm Calm - N/A   Clear
12:16 AM 46.4 °F - 42.8 °F 87% 29.89 in 10.0 mi Calm Calm - N/A   Clear
12:35 AM 46.4 °F 45.2 °F 41.0 °F 81% 29.89 in 10.0 mi SE 3.5 mph - N/A   Mostly Cloudy
12:36 AM 46.4 °F 45.2 °F 41.0 °F 81% 29.89 in 10.0 mi SE 3.5 mph - N/A   Mostly Cloudy
12:55 AM 46.4 °F 44.3 °F 41.0 °F 81% 29.89 in 10.0 mi SSE 4.6 mph - N/A   Scattered Clouds
1:15 AM 46.4 °F 45.2 °F 42.8 °F 87% 29.89 in 10.0 mi SE 3.5 mph - N/A   Mostly Cloudy
1:16 AM 46.4 °F 45.2 °F 42.8 °F 87% 29.89 in 10.0 mi SE 3.5 mph - N/A   Mostly Cloudy
1:35 AM 48.2 °F - 42.8 °F 82% 29.89 in 10.0 mi ESE 3.5 mph - N/A   Overcast
1:36 AM 48.2 °F - 42.8 °F 82% 29.89 in 10.0 mi ESE 3.5 mph - N/A   Overcast
1:55 AM 48.2 °F - 42.8 °F 82% 29.89 in 10.0 mi SE 5.8 mph - N/A   Overcast
2:15 AM 48.2 °F - 42.8 °F 82% 29.89 in 10.0 mi SE 4.6 mph - N/A   Scattered Clouds
2:16 AM 48.2 °F - 42.8 °F 82% 29.89 in 10.0 mi SE 4.6 mph - N/A   Scattered Clouds
2:35 AM 46.4 °F 44.3 °F 42.8 °F 87% 29.89 in 10.0 mi SE 4.6 mph - N/A   Mostly Cloudy
2:55 AM 46.4 °F 45.2 °F 42.8 °F 87% 29.89 in 10.0 mi ESE 3.5 mph - N/A   Scattered Clouds
3:15 AM 46.4 °F - 42.8 °F 87% 29.89 in 10.0 mi Calm Calm - N/A   Clear
3:16 AM 46.4 °F - 42.8 °F 87% 29.89 in 10.0 mi Calm Calm - N/A   Clear
3:35 AM 46.4 °F 45.2 °F 42.8 °F 87% 29.89 in 10.0 mi East 3.5 mph - N/A   Clear
3:36 AM 46.4 °F 45.2 °F 42.8 °F 87% 29.89 in 10.0 mi ESE 3.5 mph - N/A   Clear
3:55 AM 46.4 °F 44.3 °F 42.8 °F 87% 29.89 in 10.0 mi ESE 4.6 mph - N/A   Mostly Cloudy
4:15 AM 46.4 °F 44.3 °F 42.8 °F 87% 29.89 in 10.0 mi SE 4.6 mph - N/A   Overcast
4:16 AM 46.4 °F 44.3 °F 42.8 °F 87% 29.89 in 10.0 mi SE 4.6 mph - N/A   Overcast
4:35 AM 46.4 °F 44.3 °F 42.8 °F 87% 29.88 in 10.0 mi SE 4.6 mph - N/A   Overcast
4:55 AM 46.4 °F 44.3 °F 42.8 °F 87% 29.88 in 10.0 mi SE 4.6 mph - N/A   Overcast
5:15 AM 46.4 °F 44.3 °F 42.8 °F 87% 29.88 in 10.0 mi SE 4.6 mph - N/A   Overcast
5:16 AM 46.4 °F 45.2 °F 42.8 °F 87% 29.88 in 10.0 mi SE 3.5 mph - N/A   Overcast
5:35 AM 46.4 °F 44.3 °F 42.8 °F 87% 29.88 in 10.0 mi SE 4.6 mph - N/A   Mostly Cloudy
5:55 AM 44.6 °F 43.1 °F 41.0 °F 87% 29.88 in 10.0 mi SE 3.5 mph - N/A   Scattered Clouds
6:15 AM 44.6 °F 43.1 °F 41.0 °F 87% 29.89 in 10.0 mi East 3.5 mph - N/A   Clear
6:16 AM 44.6 °F 43.1 °F 41.0 °F 87% 29.89 in 10.0 mi East 3.5 mph - N/A   Clear
6:35 AM 44.6 °F 41.4 °F 42.8 °F 93% 29.89 in 10.0 mi ESE 5.8 mph - N/A   Clear
6:36 AM 44.6 °F 42.2 °F 42.8 °F 93% 29.89 in 10.0 mi ESE 4.6 mph - N/A   Clear
6:55 AM 46.4 °F 43.5 °F 42.8 °F 87% 29.89 in 10.0 mi SE 5.8 mph - N/A   Clear
7:15 AM 46.4 °F 45.2 °F 42.8 °F 87% 29.90 in 10.0 mi SE 3.5 mph - N/A   Clear
7:16 AM 46.4 °F 44.3 °F 42.8 °F 87% 29.90 in 10.0 mi ESE 4.6 mph - N/A   Clear
7:35 AM 46.4 °F 45.2 °F 42.8 °F 87% 29.90 in 10.0 mi SE 3.5 mph - N/A   Clear
7:36 AM 46.4 °F 45.2 °F 42.8 °F 87% 29.90 in 10.0 mi SE 3.5 mph - N/A   Clear
7:55 AM 48.2 °F - 42.8 °F 82% 29.90 in 10.0 mi SE 4.6 mph - N/A   Clear
8:15 AM 50.0 °F - 42.8 °F 76% 29.90 in 10.0 mi SSE 5.8 mph - N/A   Clear
8:16 AM 51.8 °F - 42.8 °F 71% 29.90 in 10.0 mi SSE 6.9 mph - N/A   Clear
8:35 AM 53.6 °F - 42.8 °F 67% 29.90 in 10.0 mi South 5.8 mph - N/A   Clear
8:36 AM 53.6 °F - 42.8 °F 67% 29.90 in 10.0 mi SSE 6.9 mph - N/A   Clear
8:55 AM 53.6 °F - 42.8 °F 67% 29.90 in 10.0 mi SSE 6.9 mph - N/A   Clear
9:15 AM 55.4 °F - 42.8 °F 63% 29.90 in 10.0 mi South 9.2 mph - N/A   Clear
9:16 AM 55.4 °F - 42.8 °F 63% 29.90 in 10.0 mi South 6.9 mph - N/A   Clear
9:35 AM 55.4 °F - 42.8 °F 63% 29.90 in 10.0 mi South 5.8 mph - N/A   Clear
9:36 AM 55.4 °F - 42.8 °F 63% 29.90 in 10.0 mi South 5.8 mph - N/A   Clear
9:55 AM 55.4 °F - 42.8 °F 63% 29.90 in 10.0 mi SSW 3.5 mph - N/A   Clear
10:15 AM 57.2 °F - 42.8 °F 59% 29.90 in 10.0 mi South 4.6 mph - N/A   Scattered Clouds
10:35 AM 60.8 °F - 42.8 °F 52% 29.90 in 10.0 mi SE 9.2 mph - N/A   Scattered Clouds
10:36 AM 60.8 °F - 42.8 °F 52% 29.90 in 10.0 mi SE 9.2 mph - N/A   Mostly Cloudy
10:55 AM 60.8 °F - 41.0 °F 48% 29.90 in 10.0 mi SSE 5.8 mph - N/A   Mostly Cloudy
11:15 AM 60.8 °F - 39.2 °F 45% 29.89 in 10.0 mi South 8.1 mph - N/A   Mostly Cloudy
11:35 AM 62.6 °F - 39.2 °F 42% 29.89 in 10.0 mi SE 11.5 mph - N/A   Mostly Cloudy
11:36 AM 62.6 °F - 39.2 °F 42% 29.89 in 10.0 mi SE 10.4 mph - N/A   Mostly Cloudy
11:55 AM 60.8 °F - 39.2 °F 45% 29.90 in 10.0 mi South 9.2 mph - N/A   Mostly Cloudy
11:56 AM 60.8 °F - 39.2 °F 45% 29.90 in 10.0 mi South 8.1 mph - N/A   Mostly Cloudy
12:15 PM 62.6 °F - 37.4 °F 39% 29.89 in 10.0 mi South 5.8 mph - N/A   Mostly Cloudy
12:35 PM 62.6 °F - 37.4 °F 39% 29.89 in 10.0 mi South 9.2 mph - N/A   Scattered Clouds
12:36 PM 62.6 °F - 37.4 °F 39% 29.89 in 10.0 mi SSE 8.1 mph - N/A   Scattered Clouds
12:55 PM 60.8 °F - 37.4 °F 42% 29.89 in 10.0 mi SSE 3.5 mph - N/A   Scattered Clouds
1:15 PM 62.6 °F - 39.2 °F 42% 29.89 in 10.0 mi SSW 4.6 mph 16.1 mph N/A   Scattered Clouds
1:35 PM 60.8 °F - 37.4 °F 42% 29.89 in 10.0 mi South 6.9 mph - N/A   Mostly Cloudy
1:36 PM 60.8 °F - 37.4 °F 42% 29.89 in 10.0 mi SSE 8.1 mph - N/A   Mostly Cloudy
1:55 PM 60.8 °F - 37.4 °F 42% 29.89 in 10.0 mi South 6.9 mph - N/A   Mostly Cloudy
2:15 PM 62.6 °F - 37.4 °F 39% 29.88 in 10.0 mi South 8.1 mph - N/A   Mostly Cloudy
2:35 PM 62.6 °F - 37.4 °F 39% 29.88 in 10.0 mi SSE 5.8 mph - N/A   Mostly Cloudy
2:55 PM 62.6 °F - 37.4 °F 39% 29.88 in 10.0 mi SW 3.5 mph - N/A   Scattered Clouds
3:15 PM 62.6 °F - 37.4 °F 39% 29.88 in 10.0 mi South 9.2 mph 16.1 mph N/A   Scattered Clouds
3:35 PM 62.6 °F - 37.4 °F 39% 29.88 in 10.0 mi SW 6.9 mph - N/A   Scattered Clouds
3:36 PM 62.6 °F - 37.4 °F 39% 29.88 in 10.0 mi SSW 5.8 mph - N/A   Scattered Clouds
3:55 PM 62.6 °F - 37.4 °F 39% 29.88 in 10.0 mi South 5.8 mph - N/A   Scattered Clouds
4:15 PM 62.6 °F - 37.4 °F 39% 29.88 in 10.0 mi South 3.5 mph - N/A   Scattered Clouds
4:35 PM 62.6 °F - 37.4 °F 39% 29.87 in 10.0 mi South 5.8 mph - N/A   Scattered Clouds
4:36 PM 62.6 °F - 35.6 °F 37% 29.87 in 10.0 mi South 3.5 mph - N/A   Scattered Clouds
4:55 PM 62.6 °F - 35.6 °F 37% 29.87 in 10.0 mi SSW 3.5 mph - N/A   Scattered Clouds
5:15 PM 62.6 °F - 35.6 °F 37% 29.87 in 10.0 mi SSW 4.6 mph - N/A   Mostly Cloudy
5:35 PM 62.6 °F - 35.6 °F 37% 29.87 in 10.0 mi WSW 4.6 mph - N/A   Mostly Cloudy
5:36 PM 62.6 °F - 35.6 °F 37% 29.87 in 10.0 mi SW 5.8 mph - N/A   Mostly Cloudy
5:55 PM 62.6 °F - 35.6 °F 37% 29.87 in 10.0 mi SW 5.8 mph - N/A   Scattered Clouds
5:56 PM 62.6 °F - 35.6 °F 37% 29.87 in 10.0 mi SW 4.6 mph - N/A   Scattered Clouds
6:15 PM 62.6 °F - 35.6 °F 37% 29.87 in 10.0 mi SSW 4.6 mph - N/A   Scattered Clouds
6:35 PM 60.8 °F - 35.6 °F 39% 29.87 in 10.0 mi WSW 5.8 mph - N/A   Clear
6:36 PM 60.8 °F - 35.6 °F 39% 29.87 in 10.0 mi WSW 5.8 mph - N/A   Scattered Clouds
6:55 PM 60.8 °F - 37.4 °F 42% 29.86 in 10.0 mi WSW 4.6 mph - N/A   Scattered Clouds
7:15 PM 60.8 °F - 37.4 °F 42% 29.86 in 10.0 mi West 4.6 mph - N/A   Clear
7:35 PM 59.0 °F - 37.4 °F 45% 29.86 in 10.0 mi WSW 3.5 mph - N/A   Clear
7:55 PM 57.2 °F - 37.4 °F 48% 29.87 in 10.0 mi Calm Calm - N/A   Clear
8:15 PM 57.2 °F - 37.4 °F 48% 29.87 in 10.0 mi Calm Calm - N/A   Clear
8:35 PM 51.8 °F - 37.4 °F 58% 29.88 in 10.0 mi Calm Calm - N/A   Clear
8:36 PM 51.8 °F - 37.4 °F 58% 29.88 in 10.0 mi Calm Calm - N/A   Clear
8:55 PM 48.2 °F - 37.4 °F 66% 29.88 in 10.0 mi WNW 3.5 mph - N/A   Clear
8:56 PM 48.2 °F - 37.4 °F 66% 29.88 in 10.0 mi WNW 3.5 mph - N/A   Clear
9:15 PM 46.4 °F - 37.4 °F 71% 29.89 in 10.0 mi Calm Calm - N/A   Clear
9:35 PM 44.6 °F - 37.4 °F 76% 29.89 in 10.0 mi Calm Calm - N/A   Clear
9:36 PM 46.4 °F - 37.4 °F 71% 29.89 in 10.0 mi Calm Calm - N/A   Clear
9:55 PM 44.6 °F - 37.4 °F 76% 29.89 in 10.0 mi Calm Calm - N/A   Clear
10:15 PM 44.6 °F - 37.4 °F 76% 29.90 in 10.0 mi Calm Calm - N/A   Clear
10:35 PM 42.8 °F - 37.4 °F 81% 29.90 in 10.0 mi Calm Calm - N/A   Clear
10:36 PM 42.8 °F - 37.4 °F 81% 29.90 in 10.0 mi Calm Calm - N/A   Clear
10:55 PM 42.8 °F - 37.4 °F 81% 29.90 in 10.0 mi Calm Calm - N/A   Clear
10:56 PM 42.8 °F - 37.4 °F 81% 29.90 in 10.0 mi Calm Calm - N/A   Clear
11:15 PM 41.0 °F - 37.4 °F 87% 29.90 in 10.0 mi Calm Calm - N/A   Clear
11:35 PM 39.2 °F - 35.6 °F 87% 29.90 in 10.0 mi Calm Calm - N/A   Clear
11:36 PM 39.2 °F - 35.6 °F 87% 29.90 in 10.0 mi Calm Calm - N/A   Clear
11:55 PM 39.2 °F - 37.4 °F 93% 29.90 in 10.0 mi Calm Calm - N/A   Clear